APSTAR-6D

Last updated on Sun Jun 21 2026 00:03:08 GMT+0000 (Coordinated Universal Time)

1 45863U 20045A 26171.77501203 -.00000321 00000+0 00000+0 0 9994 2 45863 0.0400 81.5114 0002379 28.9216 211.5914 1.00269199 21891
UTC large
Height (km)
Speed (km/s)
/
Latitude / Longitude
Inclination (degrees)
Orbital Period (minutes)
Azimuth
Elevation
Range (km)
Doppler Factor

Next 0 passes for location: London (51.5072 / 0.1276)

No passes found over London.
APSTAR-6D